This demonstration page uses our WeatherBlox Daily Observations layout. Learn more.

Hourly Observations for February 15, 2018

Temp ( °F °C ) Dew Point ( °F °C ) Humidity (%) Winds ( mph kmh ) Pressure ( in mb ) Visibility ( mi km ) Precip ( " mm )
12:15 am 00:15 Clear 36 2.2 33 0.7 90 90 N 8 13 29.83 1010 10 16.0934 0 0
12:35 am 00:35 Clear 37 2.5 33 0.7 88 88 N 7 11 29.8 1009 10 16.0934 0 0
12:55 am 00:55 Clear 37 2.9 33 0.8 86 86 NE 3 6 29.8 1009 10 16.0934 0 0
1:15 am 01:15 Clear 36 2.2 33 0.7 90 90 Calm 29.8 1009 10 16.0934 0 0
1:35 am 01:35 Clear 36 2.3 33 0.8 90 90 WSW 3 6 29.8 1009 10 16.0934 0 0
1:55 am 01:55 Partly Cloudy 36 2 33 0.6 91 91 Calm 29.8 1009 10 16.0934 0 0
2:15 am 02:15 Clear 41 4.9 35 1.4 78 78 N 13 20 29.74 1007 10 16.0934 0 0
2:35 am 02:35 Partly Cloudy 40 4.5 34 1.1 79 79 NNW 7 11 29.74 1007 10 16.0934 0 0
2:55 am 02:55 Clear 38 3.6 34 1 83 83 N 7 11 29.74 1007 10 16.0934 0 0
3:15 am 03:15 Partly Cloudy 38 3.5 33 0.8 83 83 SSW 7 11 29.77 1008 10 16.0934 0 0
3:35 am 03:35 Partly Cloudy 38 3.2 33 0.8 84 84 N 6 9 29.74 1007 10 16.0934 0 0
3:55 am 03:55 Clear 37 3 33 0.5 84 84 NW 7 11 29.77 1008 10 16.0934 0 0
4:15 am 04:15 Clear 37 2.9 33 0.3 83 83 SSW 10 17 29.77 1008 10 16.0934 0 0
4:35 am 04:35 Partly Cloudy 40 4.3 33 0.3 75 75 NNW 8 13 29.71 1006 10 16.0934 0 0
4:55 am 04:55 Clear 40 4.5 32 0 73 73 WNW 6 9 29.77 1008 10 16.0934 0 0
5:15 am 05:15 Clear 40 4.2 32 0 74 74 Calm 29.77 1008 10 16.0934 0 0
5:35 am 05:35 Clear 38 3.4 32 -0.1 78 78 SSW 7 11 29.83 1010 10 16.0934 0 0
5:55 am 05:55 Clear 36 2.4 32 0 84 84 WSW 3 6 29.8 1009 10 16.0934 0 0
6:15 am 06:15 Clear 37 2.5 32 0 84 84 NW 6 9 29.83 1010 10 16.0934 0 0
6:35 am 06:35 Clear 35 1.7 32 0 89 89 WNW 6 9 29.83 1010 10 16.0934 0 0
6:55 am 06:55 Clear 35 1.5 32 0 90 90 NW 5 7 29.83 1010 10 16.0934 0 0
7:15 am 07:15 Clear 35 1.6 32 -0.1 89 89 NNW 7 11 29.85 1011 10 16.0934 0 0
7:35 am 07:35 Sunny 36 2.1 31 -0.3 84 84 NNW 7 11 29.85 1011 10 16.0934 0 0
7:55 am 07:55 Sunny 36 2 31 -0.3 85 85 NNW 8 13 29.85 1011 10 16.0934 0 0
8:15 am 08:15 Sunny 35 1.9 32 -0.2 86 86 NNW 9 15 29.85 1011 10 16.0934 0 0
8:35 am 08:35 Sunny 37 2.6 32 0 83 83 NNW 8 13 29.85 1011 10 16.0934 0 0
8:55 am 08:55 Sunny 37 2.7 32 -0.2 81 81 NNW 7 11 29.85 1011 10 16.0934 0 0
9:15 am 09:15 Sunny 37 3 31 -0.3 79 79 N 7 11 29.88 1012 10 16.0934 0 0
9:35 am 09:35 Sunny 38 3.4 32 0 79 79 N 9 15 29.88 1012 10 16.0934 0 0
9:55 am 09:55 Sunny 39 3.7 32 0 77 77 N 10 17 29.88 1012 10 16.0934 0 0
10:15 am 10:15 Sunny 39 3.8 32 0 77 77 N 9 15 29.88 1012 10 16.0934 0 0
10:35 am 10:35 Sunny 39 4.1 32 -0.1 74 74 NNE 10 17 29.88 1012 10 16.0934 0 0
10:55 am 10:55 Sunny 39 4.1 32 -0.1 74 74 N 8 13 29.88 1012 10 16.0934 0 0
11:15 am 11:15 Sunny 40 4.3 32 -0.1 73 73 NNE 10 17 29.85 1011 10 16.0934 0 0
11:35 am 11:35 Sunny 40 4.7 32 0 72 72 N 6 9 29.85 1011 10 16.0934 0 0
11:55 am 11:55 Sunny 41 4.8 32 0 71 71 NNE 5 7 29.85 1011 10 16.0934 0 0
12:15 pm 12:15 Sunny 42 5.6 32 -0.1 67 67 ENE 9 15 29.85 1011 10 16.0934 0 0
12:35 pm 12:35 Sunny 42 5.7 31 -0.7 64 64 NE 13 20 29.88 1012 10 16.0934 0 0
12:55 pm 12:55 Sunny 43 6 31 -0.7 62 62 NNE 10 17 29.88 1012 10 16.0934 0 0
1:15 pm 13:15 Sunny 42 5.8 32 0 67 67 N 8 13 29.88 1012 10 16.0934 0 0
1:35 pm 13:35 Sunny 42 5.3 32 -0.1 68 68 N 13 20 29.88 1012 10 16.0934 0 0
1:55 pm 13:55 Sunny 42 5.3 31 -0.5 67 67 N 14 22 29.88 1012 10 16.0934 0 0
2:15 pm 14:15 Sunny 42 5.6 32 0 68 68 NNE 15 24 29.91 1013 10 16.0934 0 0
2:35 pm 14:35 Sunny 42 5.5 32 0 68 68 NNE 13 20 29.91 1013 10 16.0934 0 0
2:55 pm 14:55 Sunny 41 5.2 32 0.1 70 70 N 12 19 29.91 1013 10 16.0934 0 0
3:15 pm 15:15 Sunny 41 5.2 32 0 69 69 NNE 10 17 29.91 1013 10 16.0934 0 0
3:35 pm 15:35 Sunny 42 5.4 32 0 68 68 NE 12 19 29.94 1014 10 16.0934 0 0
3:55 pm 15:55 Sunny 42 5.3 32 0 69 69 NNE 9 15 29.94 1014 10 16.0934 0 0
4:15 pm 16:15 Partly Cloudy 41 4.9 32 -0.1 70 70 N 12 19 30 1016 10 16.0934 0 0
4:35 pm 16:35 Cloudy 40 4.5 32 0.1 73 73 N 10 17 30.03 1017 10 16.0934 0 0
4:55 pm 16:55 Cloudy 40 4.3 32 0 74 74 N 10 17 30.03 1017 10 16.0934 0 0
5:15 pm 17:15 Cloudy 39 4 32 0.1 76 76 N 12 19 30.06 1018 10 16.0934 0 0
5:35 pm 17:35 Mostly Cloudy 38 3.5 32 0 78 78 N 10 17 30.06 1018 10 16.0934 0 0
5:55 pm 17:55 Cloudy 37 3 32 0 81 81 N 10 17 30.09 1019 10 16.0934 0 0
6:15 pm 18:15 Cloudy 37 2.6 32 0 83 83 N 14 22 30.12 1020 10 16.0934 0 0
6:35 pm 18:35 Cloudy 36 2.3 32 -0.1 84 84 N 17 28 30.12 1020 10 16.0934 0 0
6:55 pm 18:55 Cloudy 36 2 31 -0.3 85 85 N 21 33 30.15 1021 10 16.0934 0 0
7:15 pm 19:15 Cloudy 35 1.5 31 -0.5 87 87 N 24 39 30.15 1021 10 16.0934 0 0
7:35 pm 19:35 Cloudy 34 1 31 -0.5 90 90 N 21 33 30.18 1022 10 16.0934 0 0
7:55 pm 19:55 Cloudy 33 0.8 30 -1 88 88 N 22 35 30.21 1023 10 16.0934 0 0
8:15 pm 20:15 Cloudy 33 0.3 30 -0.9 92 92 N 26 43 30.24 1024 10 16.0934 0 0
8:35 pm 20:35 Cloudy 31 -0.8 29 -1.8 93 93 N 28 44 30.24 1024 10 16.0934 0 0
8:55 pm 20:55 Cloudy 29 -1.7 28 -2.5 94 94 N 21 33 30.27 1025 10 16.0934 0 0
9:15 pm 21:15 Cloudy 28 -2.5 24 -4.7 85 85 N 25 41 30.33 1027 10 16.0934 0 0
9:35 pm 21:35 Cloudy 27 -2.6 24 -4.4 88 88 N 24 39 30.33 1027 10 16.0934 0 0
9:55 pm 21:55 Cloudy 26 -3.1 23 -5.2 86 86 N 30 48 30.33 1027 10 16.0934 0 0
10:15 pm 22:15 Cloudy 25 -3.9 20 -6.5 82 82 N 24 39 30.36 1028 10 16.0934 0 0
10:35 pm 22:35 Cloudy 24 -4.6 19 -7.2 82 82 N 23 37 30.39 1029 10 16.0934 0 0
10:55 pm 22:55 Partly Cloudy 23 -5.2 18 -7.7 83 83 N 20 31 30.42 1030 10 16.0934 0 0
11:15 pm 23:15 Partly Cloudy 22 -5.8 17 -8.6 81 81 N 20 31 30.45 1031 10 16.0934 0 0
11:35 pm 23:35 Partly Cloudy 21 -6 16 -8.7 81 81 N 22 35 30.48 1032 10 16.0934 0 0
11:55 pm 23:55 Mostly Cloudy 21 -6.2 16 -9 81 81 N 20 31 30.48 1032 10 16.0934 0 0

Powered by AerisWeather